Location: Unspecified
(48.8430°N, 12.6288°E)
Time: 14:36:26
(UTC+02:00)

ISS - Visible Passes

Search period start: 20 July 2025 00:00
Search period end: 30 July 2025 00:00
Orbit: 415 x 418 km, 51.6° (Epoch: 20 July)

Date Brightness Start Highest point End Pass type
(mag) Time Alt. Az. Time Alt. Az. Time Alt. Az.
20 Jul -3.7 22:45:55 10° WNW 22:49:14 60° SSW 22:50:52 26° SE visible
21 Jul -3.8 21:57:32 10° WNW 22:00:53 84° SSW 22:04:06 11° ESE visible
21 Jul -1.9 23:34:49 10° W 23:36:59 19° SW 23:36:59 19° SW visible
22 Jul -2.5 22:46:07 10° W 22:49:04 29° SW 22:50:14 23° S visible
23 Jul -3.1 21:57:34 10° WNW 22:00:47 43° SSW 22:03:32 13° SE visible
24 Jul -1.4 22:46:58 10° WSW 22:48:39 13° SW 22:49:45 12° SSW visible
25 Jul -1.8 21:57:54 10° W 22:00:26 20° SW 22:02:59 10° S visible
